Preview of NWS' New Version of Forecast
This preview is not operational and should not be used for support decisions.

Regional Weather Roundup (RWR)

Issued by National Weather Service (NWS)

                            
000
ASUS46 KPQR 201010
RWROR 

OREGON REGIONAL WEATHER ROUNDUP
NATIONAL WEATHER SERVICE PORTLAND OR
300 AM PDT TUE AUG 20 2019

NOTE: "FAIR" INDICATES FEW OR NO CLOUDS BELOW 12,000 FEET WITH
NO SIGNIFICANT WEATHER AND/OR OBSTRUCTIONS TO VISIBILITY.

ORZ001>013-201100-
NORTHWEST OREGON

  
CITY           SKY/WX    TMP DP  RH WIND       PRES   REMARKS
ASTORIA        CLEAR     53  51  93 SE3       29.93F                  
TILLAMOOK      CLEAR     52  50  93 SE5       29.96S                  
NEWPORT        CLEAR     52  50  93 CALM      29.98S                  
FLORENCE       FAIR      52  50  93 CALM      29.96S                  
PORTLAND       CLEAR     64  57  78 CALM      29.94S                  
VANCOUVER WA   CLEAR     60  55  83 CALM      29.93S                  
SCAPPOOSE      CLEAR     57  54  89 SW3       29.93S                  
HILLSBORO      CLEAR     55  52  89 CALM      29.94R                  
AURORA         CLEAR     61  55  81 CALM      29.95S                  
MCMINNVILLE    CLEAR     57  53  86 CALM      29.93F                  
SALEM          CLEAR     57  53  86 CALM      29.93S                  
CORVALLIS      CLEAR     57  54  89 W6        29.95S                  
EUGENE         CLEAR     57  52  83 SE6       29.95S                  
CRESWELL       PTCLDY    55  55 100 CALM      29.94S                  
$$

ORZ021-028-201100-
SOUTHWEST OREGON

  
CITY           SKY/WX    TMP DP  RH WIND       PRES   REMARKS
NORTH BEND     CLEAR     56  56 100 SE5       29.98F                  
BROOKINGS      LGT RAIN  52  52 100 CALM      29.99S VSB 1/4          
ROSEBURG       CLEAR     63  56  78 CALM      29.95S                  
SEXTON SUMMIT  CLEAR     62  53  72 S5        30.04F                  
GRANTS PASS    FAIR      63  54  72 CALM      29.97S                  
MEDFORD        CLEAR     66  52  60 CALM      29.95R                  
$$

ORZ014>016-041-201100-
COLUMBIA GORGE

  
CITY           SKY/WX    TMP DP  RH WIND       PRES   REMARKS
TROUTDALE      CLEAR     59  53  80 SE3       29.94S                  
HOOD RIVER     CLEAR     55  46  71 S5        29.93S                  
THE DALLES     CLEAR     65  52  62 CALM      29.89S                  
$$

ORZ029>031-041-044-049-050-061>064-502-503-505>511-201100-
EASTERN OREGON

  
CITY           SKY/WX    TMP DP  RH WIND       PRES   REMARKS
MADRAS         CLEAR     55  48  76 SE5       30.00S                  
REDMOND        CLEAR     57  46  66 S3        30.01S                  
BEND           CLEAR     59  46  63 S5        30.02S                  
PRINEVILLE     CLEAR     57  46  67 S3        30.01S                  
KLAMATH FALLS  CLEAR     53  46  77 SE7       30.07R                  
LAKEVIEW       CLEAR     42  33  70 NW5       30.12F                  
HERMISTON      PTCLDY    62  48  60 CALM      29.88S                  
PENDLETON      PTCLDY    62  45  53 SE8       29.92S                  
JOHN DAY       PTCLDY    64  40  41 CALM      30.05R                  
MEACHAM        PTCLDY    46  40  79 CALM      30.05S                  
LA GRANDE      PTCLDY    55  46  71 W3        30.01R                  
BAKER CITY     CLEAR     52  46  80 CALM      30.03R                  
BURNS          PTCLDY    54  38  54 W6        30.04R                  
ROME             N/A     57  29  34 CALM      30.02R                  
ONTARIO        PTCLDY    68  45  43 W3        29.92R                  
$$